Regional Weather Roundup
Issued by NWS

Home | Current Version | Previous Version | Text Only | Print | Product List | Glossary Off
Versions: 1 2 3 4 5 6 7 8 9 10 11 12 13 14 15 16 17 18 19 20 21 22 23 24 25 26 27 28 29 30 31 32 33 34 35 36 37 38 39 40 41 42 43 44 45 46 47 48 49 50

000
ASUS43 KDTX 250610
RWRMI
MICHIGAN HOURLY REGIONAL WEATHER ROUNDUP
NATIONAL WEATHER SERVICE DETROIT/PONTIAC MI
200 AM EDT FRI JUL 25 2014

NOTE: "FAIR" INDICATES FEW OR NO CLOUDS BELOW 12,000 FEET WITH NO
SIGNIFICANT WEATHER AND/OR OBSTRUCTION TO VISIBILITY.

MIZ047>049-052>055-059>063-066>070-074>076-081>083-250700-
SOUTHEAST LOWER MICHIGAN

CITY           SKY/WX    TMP DP  RH WIND       PRES   REMARKS
ADRIAN         CLEAR     55  51  86 CALM      30.07F
6HR MIN TEMP:  54; 6HR MAX TEMP:  73;

ALMA           CLEAR     53  51  94 CALM      30.06S
6HR MIN TEMP:  53; 6HR MAX TEMP:  68;

ANN ARBOR      CLEAR     48  45  89 CALM      30.06F
BAD AXE        CLEAR     50  47  87 CALM      30.05F
6HR MIN TEMP:  50; 6HR MAX TEMP:  68;

DETROIT CITY   CLEAR     62  50  64 CALM      30.06F
6HR MIN TEMP:  61; 6HR MAX TEMP:  72;

DETROIT        PTCLDY    61  52  72 CALM      30.07S
6HR MIN TEMP:  60; 6HR MAX TEMP:  74;

FLINT          CLEAR     56  49  77 S3        30.05F
6HR MIN TEMP:  53; 6HR MAX TEMP:  73;

GROSSE ILE     CLEAR     63  57  82 CALM      30.05F
HILLSDALE      CLEAR     51  51  99 CALM      30.07F
6HR MIN TEMP:  51; 6HR MAX TEMP:  70;

HOWELL         CLEAR     54  51  92 CALM      30.06F
6HR MIN TEMP:  54; 6HR MAX TEMP:  69;


CITY           SKY/WX    TMP DP  RH WIND       PRES   REMARKS
JACKSON        CLEAR     56  52  86 CALM      30.06F
6HR MIN TEMP:  53; 6HR MAX TEMP:  69;

LAMBERTVILLE   CLEAR     54  50  87 CALM      30.07S
LANSING        CLEAR     57  53  86 CALM      30.07S
6HR MIN TEMP:  55; 6HR MAX TEMP:  70;

LAPEER         NOT AVBL
MASON          CLEAR     53  51  92 CALM      30.06F
MONROE         CLEAR     55  52  88 CALM      30.05F FOG
MT. CLEMENS    CLEAR     54  48  80 CALM      30.05F
6HR MIN TEMP:  53; 6HR MAX TEMP:  68;

PONTIAC        CLEAR     57  49  74 CALM      30.06F
6HR MIN TEMP:  55; 6HR MAX TEMP:  71;

PORT HOPE        N/A     58  46  64 SW5       30.03F
6HR MIN TEMP:  56; 6HR MAX TEMP:  66;

PORT HURON     FOG       46  46 100 CALM      30.06F VSB 1
TRI CITIES     CLEAR     60  52  74 SW7       30.05S
6HR MIN TEMP:  60; 6HR MAX TEMP:  73;

YPSILANTI      CLEAR     58  51  78 CALM      30.07S
6HR MIN TEMP:  55; 6HR MAX TEMP:  77;

$$
MIZ043>046-050>051-056>058-064>065-071>073-077>080-250700-
SOUTHWEST LOWER MICHIGAN

CITY           SKY/WX    TMP DP  RH WIND       PRES   REMARKS
BATTLE CREEK   PTCLDY    57  50  77 CALM      30.07F
6HR MIN TEMP:  57; 6HR MAX TEMP:  72;

BENTON HARBOR  CLEAR     50  49  96 CALM      30.06S
6HR MIN TEMP:  50; 6HR MAX TEMP:  64;

BIG RAPIDS     MOCLDY    52  51  96 CALM      30.05F
6HR MIN TEMP:  52; 6HR MAX TEMP:  70;

COLDWATER      CLEAR     55  53  90 CALM      30.06F
6HR MIN TEMP:  55; 6HR MAX TEMP:  73;

HOLLAND        PTCLDY    54  49  83 CALM      30.07R
6HR MIN TEMP:  54; 6HR MAX TEMP:  68;

GRAND RAPIDS   MOCLDY    57  52  83 CALM      30.06S
6HR MIN TEMP:  56; 6HR MAX TEMP:  72;

KALAMAZOO      CLEAR     55  50  83 CALM      30.07S
6HR MIN TEMP:  53; 6HR MAX TEMP:  72;

MARSHALL       CLEAR     52  51  97 CALM      30.06F
MUSKEGON       MOCLDY    54  49  83 SW5       30.06R
6HR MIN TEMP:  54; 6HR MAX TEMP:  69;

$$
MIZ016>042-250700-
NORTHERN LOWER MICHIGAN

CITY           SKY/WX    TMP DP  RH WIND       PRES   REMARKS
ALPENA         CLEAR     52  50  93 CALM      30.03F
6HR MIN TEMP:  51; 6HR MAX TEMP:  66; 6HR PCP: TRACE;

BEAVER ISLAND  CLEAR     57  52  84 SW7       30.01F
6HR MIN TEMP:  53; 6HR MAX TEMP:  63;

BELLAIRE       CLEAR     47  46  95 CALM      30.03S
6HR MIN TEMP:  47; 6HR MAX TEMP:  67;

CADILLAC       PTCLDY    47  47  99 CALM      30.05S
CHARLEVOIX     CLEAR     53  49  87 CALM      30.05S
6HR MIN TEMP:  52; 6HR MAX TEMP:  65;

FRANKFORT      MOCLDY    53  49  86 CALM      30.03F
GAYLORD        CLEAR     50  46  86 CALM      30.04F
6HR MIN TEMP:  49; 6HR MAX TEMP:  65;

GRAYLING       CLEAR     49  49 100 CALM      30.05S FOG
6HR MIN TEMP:  46; 6HR MAX TEMP:  69;

HARBOR SPRINGS CLEAR     52  49  89 CALM      30.02S
HOUGHTON LAKE  CLEAR     49  49 100 CALM      30.06R
6HR MIN TEMP:  49; 6HR MAX TEMP:  70;

MANISTEE       MOCLDY    48  46  93 CALM      30.05S
OSCODA         CLEAR     53  49  87 CALM      30.02F
PELLSTON       CLEAR     45  43  93 CALM      30.03S
6HR MIN TEMP:  45; 6HR MAX TEMP:  65;

TRAVERSE CITY  PTCLDY    53  48  83 CALM      30.02S
6HR MIN TEMP:  53; 6HR MAX TEMP:  70;

$$
MIZ007>008-015-250700-
EASTERN UPPER MICHIGAN

CITY           SKY/WX    TMP DP  RH WIND       PRES   REMARKS
KINROSS        CLEAR     54  52  94 CALM      30.01S
6HR MIN TEMP:  54; 6HR MAX TEMP:  64;

MACKINAC ISLAN CLEAR     55  52  90 SW7       30.01S
6HR MIN TEMP:  55; 6HR MAX TEMP:  63;

NEWBERRY       CLEAR     52  47  81 SW8       29.99S
6HR MIN TEMP:  52; 6HR MAX TEMP:  66;

S. S. MARIE    CLEAR     50  46  86 CALM      30.00F
6HR MIN TEMP:  50; 6HR MAX TEMP:  64;

$$
MIZ004>006-011>014-085-250700-
CENTRAL UPPER MICHIGAN

CITY           SKY/WX    TMP DP  RH WIND       PRES   REMARKS
MANISTIQUE     MOCLDY    58  50  73 SW7       29.99F
6HR MIN TEMP:  55; 6HR MAX TEMP:  61;

ESCANABA       CLOUDY    59  48  67 W5        29.99S
6HR MIN TEMP:  59; 6HR MAX TEMP:  66;

MENOMINEE      MOCLDY    63  48  59 SW10      29.99F
6HR MIN TEMP:  61; 6HR MAX TEMP:  70;

SAWYER-GWINN   CLEAR     55  51  85 S5        29.98S
6HR MIN TEMP:  55; 6HR MAX TEMP:  69;

$$
MIZ001>003-009>011-084-250700-
WESTERN UPPER MICHIGAN

CITY           SKY/WX    TMP DP  RH WIND       PRES   REMARKS
IRON MOUNTAIN  MOCLDY    60  52  74 S6        29.98F
6HR MIN TEMP:  60; 6HR MAX TEMP:  75;

HOUGHTON       MOCLDY    55  50  83 CALM      29.94S
6HR MIN TEMP:  54; 6HR MAX TEMP:  71;

COPPER HARBOR    N/A     61  48  62 SW6       29.92F
6HR MIN TEMP:  59; 6HR MAX TEMP:  69;

$$

ABBREVIATIONS USED IN REMARKS
   TC - TEMPERATURE IN CELSIUS
  WCI - WIND CHILL INDEX
   HX - HEAT INDEX
  VSB - VISIBILITY



USA.gov is the U.S. government's official web portal to all federal, state and local government web resources and services.